Location: Bottenau
(48.5138°N, 8.0462°E)
Time: 04:57:37
(UTC+00:00)

USA 229 - Pass Details

Date: 18 April 2021
Orbit: 958 x 1254 km, 63.4° (Epoch: 23 April)

Event Time Altitude Azimuth Distance (km) Brightness Sun altitude
Rises 21:33:30 0° 317° (NW) 3,915 7.9 -25.3°
Reaches altitude 10° 21:36:11 10° 322° (NW) 2,998 7.1 -25.5°
Maximum altitude 21:43:16 56° 40° (NE) 1,384 4.3 -26.1°
Enters shadow 21:46:15 36° 98° (E) 1,808 4.6 -26.3°
